Tracking 30106 objects as of 23-Jan-2025
HD Live streaming from Space Station
objects crossing your sky now

STARLINK-4615

Track STARLINK-4615 now!
10-day predictions
STARLINK-4615 is classified as:


NORAD ID: 53620
Int'l Code: 2022-104AJ
Perigee: 545.8 km
Apogee: 547.9 km
Inclination: 53.2 °
Period: 95.4 minutes
Semi major axis: 6917 km
RCS: Unknown
Launch date: August 28, 2022
Source: United States (US)
Launch site: AIR FORCE EASTERN TEST RANGE (AFETR)
Your satellite tracking list
Your tracking list is empty




NASA's NSSDC Master Catalog

Two Line Element Set (TLE):
1 53620U 22104AJ  25023.10948153  .00003422  00000-0  23292-3 0  9990
2 53620  53.2170 277.1245 0001533  86.7633 273.3534 15.08849715133764
Source of the keplerian elements: AFSPC